STARLINK-11604, 63133

Orbit data source: Space-Track

STARLINK-11604, 63133 is a payload satellite owned by SpaceX/Seattle (US) in LEO that was launched on Mon, 03 Mar 2025 UTC via an FALCON 9 launch vehicle from the Air Force Eastern Test Range (AFETR). Payload-class satellites include a variety of spacecraft equipped with specific instruments for various scientific and technological missions. These include communications satellites like Starlink; space stations such as the ISS; scientific satellites like the Hubble; Earth observation satellites from companies like Planet Labs, Umbra, and HawkEye 360; GPS; miniature CubeSats for education and research; and military/defense satellites.

Loading next visibility...
Identifier
63133, 2025-043B
Orbit
LEO
Country
Flag of USUS
Related business
Manufacturer
SpaceX/Seattle
Mission
Operational Commercial Communications
Bus & Motor
STARLINK V2MD, Unknown motor
Mass
960 kg wet, ~910 kg dry
Launch date (UTC)
2025-03-03 (9 months ago)
Launch vehicle
FALCON 9
Launch site
Air Force Eastern Test Range (AFETR)
Object type
Payload
Rocket body
Debris
Shape & HBR
Box + 2 Pan, 18.1 m
Radar Cross Section
36.964 m², Large (>1 m²)

Expand to show TLE details & history
Last TLE update: 14 hours ago

TLE from 14 hours ago
0 STARLINK-11604
1 63133U 25043B   25350.33337963 -.00059672  00000-0 -46462-3 0  9998
2 63133  43.0005  33.5757 0001497 279.9080 228.4410 15.70852848  6001
Epoch: 2025-12-16T08:00Z
TLE epoch observation values (Epoch: 2025-12-16T08:00:04.000Z)
Latitude
21.04708°
Longitude
-15.88564°
Altitude
356.55 km
Speed
7.699 km/s
True Right ascension
12h 37m 24s
True Declination
20° 55' 31"
Sunlit
Object was in daylight at epoch
Visualization orbit readout
Latitude
Unknown
Longitude
Unknown
Altitude
Unknown
Speed
Unknown
Apparent Right ascension
Unknown
Apparent Declination
Unknown
Sunlit
N/A
Visualization observer readout
Local Sidereal Time
20:46:17
Azimuth
Unknown
Elevation
Unknown
Doppler factor
Unknown
Orbital elements
Apogee altitude
359.448 km
Perigee altitude
357.431 km
Semi-major axis
6,736.577 km
Eccentricity
0.00015
Inclination
43.0005°
RAAN
33.5757°
Arg. of periapsis
279.908°
True anomaly
228.42817°
Mean anomaly
228.441°
Eccentric anomaly
228.43458°
Mean motion
3.9254 °/min
Orbital period
91.71 mins
BSTAR
-0.00046462
Loading maneuver chart data...
Computing Atmospheric mass density...
Loading historical data...
Loading historical data...
Loading historical data...
Loading historical data...
Loading historical data...
Loading historical data...
Loading historical data...

Documentation

Showing up to 5 results
|